COSMOS 2251 DEB

Satellite information

Favourite Embed

Satellite Type and Status

DEBRISIN ORBIT

Key statistics

Satellite COSMOS 2251 DEB at a glance.

Uptime

11764

Days in orbit

Revolutions

≈ 14.6

Per day

Orbit

LEO

Low Earth Orbit

Inclination

74.0

Latest

Satellite identification and parameters

Extended collection of information and parameters for COSMOS 2251 DEB.

Object identification

Identified? True

Debris? True

Object name: COSMOS 2251 DEB

International designator: 1993-036BPJ

Object number (NORAD): 37959

Object ID (CCSDS): 37959

Country: COMMONWEALTH OF INDEPENDENT STATES (CIS)

Current information (Y/N): Y

RCS size: SMALL

Orbital parameters

Period: 98.828 minutes

Inclination: 74.0079 deg

SMA: 7080.787 km

Apoapsis: 743.625 km

Periapsis: 661.679 km

RAAN: 261.4502 deg

Eccentricy: 0.00578653

Argument of periapsis: 67.0476 deg

Mean anomaly: 308.8309 deg

Mean motion: 14.57070099 rev/day

Mean motion (dot): 0.00002314 rev/day2

B* drag term: 0.00050873257 1/REarth

Two-line elements (TLE)

Creation date: Aug. 27, 2025, 8:01 p.m.

Reference frame: TEME

Reference center: EARTH

Epoch: Aug. 27, 2025, 7:53 a.m. UTC

TLE line 0: 0 COSMOS 2251 DEB

TLE line 1: 1 37959U 93036BPJ 25239.32872869 .00002314 00000-0 50873-3 0 9996

TLE line 2: 2 37959 74.0079 261.4502 0057865 67.0476 308.8309 14.57070099785624

Live tracking on map

Real-time ground track for satellite COSMOS 2251 DEB.

In-orbit conjunctions

A list of the most updated potential collisions computed for object COSMOS 2251 DEB.

Target Orbit TCA Probability of collision Miss distance Type
SINAH 1 SSO 2025-01-21 18:10:18 0.0001650263 823.0 (m) PAYLOAD
OV2-1 LEO 2024-12-28 17:53:18 0.0001735068 844.0 (m) PAYLOAD
COSMOS 2251 DEB LEO 2024-07-10 03:11:29 0.0003210623 46.0 (m) DEBRIS

Associated space launch

Military communications satellite. Destroyed in a collision with Iridium 33.

COSMOS 2251 DEB was lifted into orbit during the mission ‘Kosmos-3M | Strela-2M 51’, on board a Kosmos-3M space rocket.

The launch took place on June 16, 1993, 4:17 a.m. from 132/1 (132L).

For more information about the launch, click the button.

Launch to space Kosmos-3M | Strela-2M 51
Kosmos-3M | Strela-2M 51

Agency: N/A

Status: Launch Successful

Launch date: June 16, 1993, 4:17 a.m. UTC

Rocket: Kosmos-3M

Launch pad: 132/1 (132L)

Location: Plesetsk Cosmodrome, Russian Federation

...

Latest news about this satellite

There are no fresh news available about this satellite. Check back as we update our databases every day.


Newsletter sign-up

Weekly statistics, charts and insights to help you stay on top of the space industry.